• In Czech Republic
  • List of Countries
  • For 7 days
  • Water Temperature
  • Satellite Maps
  • Weather Map
  • Weather Widgets
  • user-avatar
    Login

    Hourly Weather Calgary

    Today, 25 September, Tuesday

    Time Temperature Precipitation Wind Pressure Humidity
    00:00 +5°C° 0.1 mm 2 mps 672 mmHg 84%
    01:00 +5°C° 0.1 mm 2 mps 672 mmHg 84%
    02:00 +4°C° 0 mm 2 mps 672 mmHg 84%
    03:00 +3°C° 0 mm 2 mps 672 mmHg 84%
    04:00 +3°C° 0 mm 2 mps 672 mmHg 83%
    05:00 +4°C° 0 mm 2 mps 672 mmHg 80%
    06:00 +4°C° 0 mm 2 mps 672 mmHg 77%
    07:00 +5°C° 0 mm 2 mps 673 mmHg 73%
    08:00 +7°C° 0 mm 2 mps 673 mmHg 65%
    09:00 +10°C° 0 mm 2 mps 673 mmHg 56%
    10:00 +13°C° 0 mm 2 mps 673 mmHg 48%
    11:00 +14°C° 0 mm 2 mps 672 mmHg 43%
    12:00 +15°C° 0 mm 2 mps 672 mmHg 38%
    13:00 +16°C° 0 mm 2 mps 672 mmHg 33%
    14:00 +16°C° 0 mm 1 mps 672 mmHg 35%
    15:00 +16°C° 0 mm 1 mps 671 mmHg 36%
    16:00 +16°C° 0 mm 1 mps 671 mmHg 38%
    17:00 +14°C° 0 mm 1 mps 671 mmHg 43%
    18:00 +11°C° 0 mm 1 mps 670 mmHg 47%
    19:00 +9°C° 0 mm 1 mps 670 mmHg 51%
    20:00 +8°C° 0 mm 2 mps 670 mmHg 53%
    21:00 +7°C° 0 mm 2 mps 670 mmHg 55%
    22:00 +7°C° 0 mm 2 mps 670 mmHg 56%
    23:00 +7°C° 0 mm 2 mps 670 mmHg 56%

    Tomorrow, 26 September, Wednesday

    Time Temperature Precipitation Wind Pressure Humidity
    00:00 +7°C° 0 mm 3 mps 670 mmHg 56%
    01:00 +7°C° 0 mm 3 mps 669 mmHg 56%
    02:00 +7°C° 0 mm 3 mps 669 mmHg 57%
    03:00 +7°C° 0 mm 2 mps 669 mmHg 58%
    04:00 +7°C° 0 mm 2 mps 669 mmHg 59%
    05:00 +7°C° 0 mm 2 mps 669 mmHg 59%
    06:00 +8°C° 0 mm 2 mps 670 mmHg 60%
    07:00 +8°C° 0 mm 2 mps 670 mmHg 60%
    08:00 +10°C° 0 mm 2 mps 670 mmHg 57%
    09:00 +11°C° 0 mm 3 mps 671 mmHg 54%
    10:00 +13°C° 0 mm 4 mps 671 mmHg 51%
    11:00 +13°C° 0 mm 4 mps 671 mmHg 51%
    12:00 +13°C° 0 mm 4 mps 670 mmHg 52%
    13:00 +13°C° 0 mm 4 mps 670 mmHg 53%
    14:00 +12°C° 0.1 mm 4 mps 670 mmHg 57%
    15:00 +11°C° 0.1 mm 4 mps 670 mmHg 61%
    16:00 +10°C° 0.1 mm 3 mps 669 mmHg 64%
    17:00 +9°C° 0.1 mm 3 mps 670 mmHg 69%
    18:00 +8°C° 0.1 mm 2 mps 670 mmHg 74%
    19:00 +7°C° 0.1 mm 2 mps 670 mmHg 79%
    20:00 +8°C° 0.1 mm 1 mps 670 mmHg 80%
    21:00 +7°C° 0.1 mm 1 mps 670 mmHg 82%
    22:00 +7°C° 0.1 mm 1 mps 670 mmHg 83%
    23:00 +6°C° 0 mm 1 mps 669 mmHg 84%

    Day after tomorrow, 27 September, Thursday

    Time Temperature Precipitation Wind Pressure Humidity
    00:00 +6°C° 0 mm 1 mps 669 mmHg 85%
    01:00 +6°C° 0 mm 1 mps 669 mmHg 86%
    02:00 +5°C° 0.1 mm 1 mps 669 mmHg 88%
    03:00 +5°C° 0.1 mm 1 mps 669 mmHg 90%
    04:00 +5°C° 0.1 mm 1 mps 669 mmHg 92%
    05:00 +4°C° 0.7 mm 2 mps 669 mmHg 92%
    06:00 +4°C° 0.7 mm 2 mps 670 mmHg 92%
    07:00 +3°C° 0.7 mm 3 mps 670 mmHg 93%
    08:00 +3°C° 1.1 mm 3 mps 670 mmHg 91%
    09:00 +3°C° 1.1 mm 3 mps 671 mmHg 90%
    10:00 +3°C° 1.1 mm 4 mps 671 mmHg 88%
    11:00 +3°C° 0.8 mm 3 mps 671 mmHg 87%
    12:00 +3°C° 0.8 mm 3 mps 671 mmHg 85%
    13:00 +4°C° 0.8 mm 2 mps 671 mmHg 84%
    14:00 +4°C° 0.5 mm 2 mps 672 mmHg 84%
    15:00 +4°C° 0.5 mm 2 mps 672 mmHg 84%
    16:00 +5°C° 0.5 mm 1 mps 672 mmHg 84%
    17:00 +4°C° 0.2 mm 1 mps 672 mmHg 86%
    18:00 +4°C° 0.2 mm 1 mps 672 mmHg 87%
    19:00 +2°C° 0.2 mm 0 mps 673 mmHg 89%
    20:00 +2°C° 0 mm 0 mps 673 mmHg 90%
    21:00 +1°C° 0 mm 0 mps 673 mmHg 90%
    22:00 +2°C° 0 mm 1 mps 673 mmHg 91%
    23:00 +1°C° 0 mm 1 mps 673 mmHg 91%

    28 September, Friday

    Time Temperature Precipitation Wind Pressure Humidity
    00:00 +1°C° 0 mm 1 mps 673 mmHg 91%
    01:00 +1°C° 0 mm 1 mps 673 mmHg 91%
    02:00 +1°C° 0 mm 1 mps 673 mmHg 91%
    03:00 0°C° 0 mm 1 mps 673 mmHg 90%
    04:00 0°C° 0 mm 1 mps 673 mmHg 90%
    05:00 +1°C° 0 mm 1 mps 673 mmHg 88%
    06:00 +1°C° 0 mm 1 mps 673 mmHg 86%
    07:00 +1°C° 0 mm 1 mps 674 mmHg 85%
    08:00 +3°C° 0 mm 1 mps 674 mmHg 79%
    09:00 +4°C° 0 mm 1 mps 674 mmHg 74%
    10:00 +6°C° 0 mm 1 mps 673 mmHg 69%
    11:00 +7°C° 0 mm 1 mps 673 mmHg 65%
    12:00 +7°C° 0 mm 1 mps 673 mmHg 61%
    13:00 +8°C° 0 mm 1 mps 672 mmHg 58%
    14:00 +7°C° 0 mm 1 mps 672 mmHg 59%
    15:00 +7°C° 0 mm 1 mps 672 mmHg 60%
    16:00 +7°C° 0 mm 1 mps 672 mmHg 61%
    17:00 +6°C° 0 mm 1 mps 672 mmHg 66%
    18:00 +4°C° 0 mm 1 mps 672 mmHg 70%
    19:00 +3°C° 0 mm 1 mps 672 mmHg 75%
    20:00 +2°C° 0 mm 1 mps 672 mmHg 77%
    21:00 +2°C° 0 mm 1 mps 672 mmHg 79%
    22:00 +1°C° 0 mm 1 mps 672 mmHg 80%
    23:00 +1°C° 0 mm 1 mps 672 mmHg 82%

    29 September, Saturday

    Time Temperature Precipitation Wind Pressure Humidity
    00:00 +1°C° 0 mm 1 mps 672 mmHg 83%
    01:00 0°C° 0 mm 1 mps 672 mmHg 84%
    02:00 +1°C° 0 mm 1 mps 672 mmHg 84%
    03:00 +1°C° 0 mm 1 mps 672 mmHg 84%
    04:00 +1°C° 0 mm 1 mps 672 mmHg 84%
    05:00 +1°C° 0 mm 1 mps 672 mmHg 82%
    06:00 +1°C° 0 mm 1 mps 672 mmHg 81%
    07:00 +1°C° 0 mm 1 mps 672 mmHg 79%
    08:00 +1°C° 0 mm 2 mps 672 mmHg 74%
    09:00 +3°C° 0 mm 2 mps 672 mmHg 70%
    10:00 +4°C° 0 mm 2 mps 672 mmHg 65%
    11:00 +3°C° 0 mm 3 mps 671 mmHg 62%
    12:00 +4°C° 0 mm 3 mps 671 mmHg 59%
    13:00 +5°C° 0 mm 3 mps 671 mmHg 56%
    14:00 +4°C° 0 mm 3 mps 670 mmHg 57%
    15:00 +4°C° 0 mm 3 mps 670 mmHg 57%
    16:00 +4°C° 0 mm 3 mps 669 mmHg 58%
    17:00 +4°C° 0 mm 3 mps 669 mmHg 61%
    18:00 +4°C° 0 mm 2 mps 669 mmHg 64%
    19:00 +3°C° 0 mm 2 mps 669 mmHg 67%
    20:00 +3°C° 0.2 mm 2 mps 669 mmHg 69%
    21:00 +3°C° 0.2 mm 2 mps 669 mmHg 71%
    22:00 +2°C° 0.2 mm 2 mps 669 mmHg 73%
    23:00 +1°C° 0.3 mm 3 mps 668 mmHg 75%

    30 September, Sunday

    Time Temperature Precipitation Wind Pressure Humidity
    00:00 +1°C° 0.3 mm 3 mps 668 mmHg 77%
    01:00 +1°C° 0.3 mm 3 mps 667 mmHg 79%
    02:00 0°C° 0.3 mm 3 mps 667 mmHg 82%
    03:00 0°C° 0.3 mm 3 mps 667 mmHg 85%
    04:00 0°C° 0.3 mm 3 mps 666 mmHg 87%
    05:00 0°C° 0.4 mm 3 mps 666 mmHg 88%
    06:00 0°C° 0.4 mm 3 mps 666 mmHg 89%
    07:00 0°C° 0.4 mm 3 mps 666 mmHg 90%
    08:00 0°C° 0.5 mm 3 mps 666 mmHg 91%
    09:00 0°C° 0.5 mm 3 mps 666 mmHg 91%
    10:00 +1°C° 0.5 mm 3 mps 666 mmHg 92%
    11:00 +1°C° 0.2 mm 3 mps 666 mmHg 92%
    12:00 +1°C° 0.2 mm 3 mps 666 mmHg 92%
    13:00 +2°C° 0.2 mm 2 mps 666 mmHg 92%
    14:00 +2°C° 0.1 mm 2 mps 666 mmHg 92%
    15:00 +2°C° 0.1 mm 2 mps 666 mmHg 92%
    16:00 +2°C° 0.1 mm 2 mps 666 mmHg 93%
    17:00 +3°C° 0 mm 1 mps 666 mmHg 94%
    18:00 +2°C° 0 mm 1 mps 666 mmHg 95%
    19:00 +2°C° 0 mm 1 mps 667 mmHg 96%
    20:00 +2°C° 0 mm 1 mps 667 mmHg 96%
    21:00 +2°C° 0 mm 1 mps 667 mmHg 96%
    22:00 +2°C° 0 mm 1 mps 667 mmHg 96%
    23:00 +1°C° 0 mm 2 mps 667 mmHg 97%
    Show more